Weather History for Grand Forks AFB, ND

Change the Weather History Date:

Tuesday, March 19, 2013

  Actual Average Record
Temperature  
Mean Temperature 14 °F -  
Max Temperature 26 °F 32 °F 75 °F (2012)
Min Temperature 1 °F 15 °F -2 °F (2002)
Degree Days  
Heating Degree Days 52    
Moisture  
Dew Point -3 °F    
Average Humidity 60    
Maximum Humidity 92    
Minimum Humidity 17    
Precipitation  
Precipitation 0.00 in - - ()
Sea Level Pressure  
Sea Level Pressure 30.16 in    
Wind  
Wind Speed 13 mph (NW)    
Max Wind Speed 16 mph    
Max Gust Speed -    
Visibility 10 miles    
Events      
Averages and records for this station are not official NWS values.
T = Trace of Precipitation, MM = Missing Value Source: NWS Daily Summary

Daily Weather History Graph

Daily Weather History Graph

Search for Another Location

Airport:

Trip Planner

Search our weather history database for the weather conditions in past years. The results will help you decide how hot, cold, wet, or windy it might be!

Date:

Astronomy

Mar. 19, 2013 Rise Set
Actual Time 7:33 AM CDT 7:41 PM CDT
Civil Twilight 7:03 AM CDT 8:12 PM CDT
Nautical Twilight 6:26 AM CDT 8:48 PM CDT
Astronomical Twilight 5:49 AM CDT 9:26 PM CDT
Moon 12:00 PM CDT (3/19) 2:53 AM CDT (3/19)
Length of Visible Light 13h 09m
Length of Day
12h 07m
Waxing Crescent, 50% of the Moon is Illuminated
Mar 19
Waxing Crescent
Mar 19
First Quarter
Mar 27
Full
Apr 2
Last Quarter
Apr 10
New

Hourly Weather History & Observations

Time (CDT) Temp. Windchill Dew Point Humidity Pressure Visibility Wind Dir Wind Speed Gust Speed Precip Events Conditions
12:55 AM 5.0 °F -12.3 °F 1.4 °F 85% 29.94 in 10.0 mi NW 13.8 mph - N/A   Clear
1:55 AM 5.0 °F -13.0 °F -2.2 °F 72% 29.96 in 10.0 mi WNW 15.0 mph - N/A   Clear
2:55 AM 3.2 °F -13.9 °F -2.2 °F 78% 29.98 in 10.0 mi NW 12.7 mph - N/A   Clear
3:55 AM 3.2 °F -13.1 °F -4.0 °F 72% 30.00 in 10.0 mi WNW 11.5 mph - N/A   Clear
4:55 AM 1.4 °F -14.5 °F -5.8 °F 72% 30.00 in 10.0 mi WNW 10.4 mph - N/A   Clear
5:55 AM 1.4 °F -15.3 °F -20.2 °F 36% 30.01 in 10.0 mi NW 11.5 mph - N/A   Clear
6:55 AM 3.2 °F -12.2 °F -4.0 °F 72% 30.05 in 10.0 mi WNW 10.4 mph - N/A   Clear
7:55 AM 6.8 °F -8.6 °F -0.4 °F 72% - 10.0 mi WNW 11.5 mph - N/A   Mostly Cloudy
8:55 AM 3.2 °F -12.2 °F 1.4 °F 92% 30.11 in 7.0 mi WNW 10.4 mph - N/A   Scattered Clouds
9:55 AM 5.0 °F -10.8 °F -5.8 °F 61% 30.16 in 10.0 mi WNW 11.5 mph - N/A   Partly Cloudy
10:01 AM 5.0 °F -10.0 °F -5.8 °F 61% 30.16 in 10.0 mi WNW 10.4 mph - N/A   Partly Cloudy
10:55 AM 5.0 °F -8.1 °F -5.8 °F 61% 30.16 in 10.0 mi WNW 8.1 mph - N/A   Overcast
11:55 AM 8.6 °F -4.7 °F -5.8 °F 52% 30.18 in 10.0 mi WNW 9.2 mph - N/A   Overcast
12:55 PM 12.2 °F -2.5 °F 5.0 °F 73% 30.19 in 10.0 mi NW 12.7 mph - N/A   Clear
1:55 PM 12.2 °F -1.8 °F 5.0 °F 73% 30.19 in 10.0 mi NNW 11.5 mph - N/A   Clear
2:55 PM 14.0 °F -1.4 °F 8.6 °F 79% 30.21 in 10.0 mi NW 15.0 mph - N/A   Clear
3:55 PM 15.8 °F 1.4 °F 8.6 °F 73% 30.22 in 10.0 mi NW 13.8 mph - N/A   Clear
4:55 PM 21.2 °F 7.8 °F -0.4 °F 39% 30.22 in 10.0 mi NW 15.0 mph - N/A   Clear
5:55 PM 21.2 °F 8.9 °F 1.4 °F 42% 30.26 in 10.0 mi NW 12.7 mph - N/A   Clear
6:55 PM 19.4 °F 5.0 °F 1.4 °F 46% 30.27 in 10.0 mi NW 16.1 mph - N/A   Clear
7:55 PM 26.6 °F 15.2 °F -13.0 °F 17% 30.27 in 10.0 mi NW 13.8 mph - N/A   Clear
8:55 PM - - - N/A% 30.29 in 10.0 mi WNW 12.7 mph - N/A   Clear
9:55 PM 15.8 °F 1.4 °F -16.6 °F 23% 30.30 in 10.0 mi NW 13.8 mph - N/A   Clear
10:55 PM 12.2 °F -3.1 °F -0.4 °F 57% 30.29 in 10.0 mi NW 13.8 mph - N/A   Clear
11:55 PM 19.4 °F 7.2 °F -14.8 °F 21% 30.31 in 10.0 mi WNW 11.5 mph - N/A   Clear